Content
SEND FEEDBACK

Daily
Averages
Monthly
Summary
Finland

HELSINKI, FINLAND


Home > Europe > Finland
Elevation: 184 feet     Latitude: 60 19N     Longitude: 024 58E

WEATHER
 
SELECT A DAY
Number of Records: 312,507;   Date Range: 7/1/96 - 9/17/14
 
SHARE

PRINT THIS DATA

[ ← Previous Day ]
WEATHER ALMANAC - SEPTEMBER 28, 2013
[ Next Day → ]
[ °C ]   °F
Weather ElementAverageHighLow
Temperature44.1 °F50 °F (2:20 pm)37.4 °F (3:50 am)
Dewpoint38.4 °F42 °F (2:39 pm)37.4 °F (3:20 am)
Humidity81 %100 % (3:50 am)62 % (4:50 pm)
Barometer29.96 in30.07 in (8:39 pm)29.83 in (12:50 am)
Wind Speed8.5 mph12.7 mph (3:20 pm)
Weather ElementAverage
Visibility8.2 mi
Wind DirectionSSE (154.7 °)

Weather ElementTotal
Precipitation---
Heating Degree Days21.3 (Base 65)
Averaged from 51 records on September 28, 2013
WEATHER CONDITIONS BREAKOUT
WIND DIRECTION BREAKOUT
WEATHER BY HOUR - SEPTEMBER 28, 2013
[ °C ]   °F
Local TimeTemperatureDewpointHumidityBarometerVisibilityWind DirectionWind SpeedGust SpeedPrecipitationEventsConditions
12:50 AM41.0 °F39.2 °F93 %29.83 inNorth (10°)5.8 mphClear
1:20 AM41.0 °F39.2 °F93 %29.83 inNorth (10°)5.8 mphClear
1:50 AM41.0 °F39.2 °F93 %29.83 in6.2 miNNE (20°)6.9 mphScattered Clouds
2:20 AM41.0 °F39.2 °F93 %29.83 in6.2 miNorth (10°)8.1 mphMostly Cloudy
2:39 AM41.0 °F39.0 °F90 %29.87 in31.0 miNNE (30°)11.2 mphClear
2:50 AM41.0 °F39.2 °F93 %29.86 in6.2 miNorth (10°)9.2 mphMostly Cloudy
3:20 AM39.2 °F37.4 °F93 %29.86 in6.2 miNorth (10°)8.1 mphScattered Clouds
3:50 AM37.4 °F37.4 °F100 %29.86 in6.2 miNorth (360°)8.1 mphMostly Cloudy
4:20 AM37.4 °F37.4 °F100 %29.86 in6.2 miNorth (10°)8.1 mphMostly Cloudy
4:50 AM39.2 °F37.4 °F93 %29.86 in6.2 miNorth (10°)9.2 mphMostly Cloudy
5:20 AM39.2 °F37.4 °F93 %29.89 in6.2 miNorth (10°)9.2 mphMostly Cloudy
5:50 AM39.2 °F37.4 °F93 %29.89 in6.2 miNorth (10°)6.9 mphScattered Clouds
6:20 AM39.2 °F37.4 °F93 %29.89 in6.2 miNorth (10°)8.1 mphScattered Clouds
6:50 AM39.2 °F37.4 °F93 %29.89 in6.2 miNorth (10°)5.8 mphPartly Cloudy
7:20 AM39.2 °F37.4 °F93 %29.92 in6.2 miNorth (10°)8.1 mphPartly Cloudy
7:50 AM39.2 °F37.4 °F93 %29.92 in6.2 miNNE (20°)8.1 mphPartly Cloudy
8:20 AM39.2 °F37.4 °F93 %29.92 in6.2 miNNE (20°)11.5 mphPartly Cloudy
8:39 AM41.0 °F39.0 °F89 %29.96 in31.0 miNNE (30°)11.2 mphClear
8:50 AM41.0 °F39.2 °F93 %29.92 in6.2 miNNE (20°)9.2 mphPartly Cloudy
9:20 AM42.8 °F39.2 °F87 %29.95 in6.2 miNorth (10°)9.2 mphPartly Cloudy
9:50 AM44.6 °F39.2 °F81 %29.95 in6.2 miNNE (30°)9.2 mphPartly Cloudy
10:20 AM44.6 °F39.2 °F81 %29.95 in6.2 miNNE (30°)11.5 mphPartly Cloudy
10:50 AM46.4 °F37.4 °F71 %29.95 in6.2 miNorth (10°)8.1 mphPartly Cloudy
11:20 AM48.2 °F37.4 °F66 %29.98 in6.2 miNNE (20°)10.4 mphPartly Cloudy
11:50 AM48.2 °F37.4 °F66 %29.98 in6.2 miNNE (30°)10.4 mphScattered Clouds
12:20 PM48.2 °F37.4 °F66 %29.98 in6.2 miNNE (20°)10.4 mphMostly Cloudy
12:50 PM48.2 °F37.4 °F66 %29.98 in6.2 miNorth (10°)8.1 mphMostly Cloudy
1:20 PM48.2 °F39.2 °F71 %29.98 in6.2 miNorth (360°)9.2 mphMostly Cloudy
1:50 PM48.2 °F39.2 °F71 %30.01 in6.2 miNorth (10°)11.5 mphMostly Cloudy
2:20 PM50.0 °F39.2 °F66 %30.01 in6.2 miNorth (360°)9.2 mphMostly Cloudy
2:39 PM49.0 °F42.0 °F69 %30.02 in31.0 miNNE (20°)11.2 mphClear
2:50 PM50.0 °F41.0 °F71 %30.01 in6.2 miNorth (360°)10.4 mphMostly Cloudy
3:20 PM48.2 °F41.0 °F76 %30.01 in6.2 miNorth (360°)12.7 mphMostly Cloudy
3:50 PM50.0 °F39.2 °F66 %30.01 in6.2 miNorth (360°)10.4 mphMostly Cloudy
4:20 PM50.0 °F39.2 °F66 %30.01 in6.2 miNNW (330°)11.5 mphMostly Cloudy
4:50 PM50.0 °F37.4 °F62 %30.01 in6.2 miNorth (350°)9.2 mphMostly Cloudy
5:20 PM50.0 °F37.4 °F62 %30.01 in6.2 miNorth (360°)11.5 mphMostly Cloudy
5:50 PM50.0 °F37.4 °F62 %30.01 in6.2 miNorth (10°)9.2 mphMostly Cloudy
6:20 PM48.2 °F37.4 °F66 %30.04 in6.2 miNorth (350°)9.2 mphMostly Cloudy
6:50 PM48.2 °F39.2 °F71 %30.04 in6.2 miNorth (350°)5.8 mphScattered Clouds
7:20 PM46.4 °F37.4 °F71 %30.04 in6.2 miNNW (340°)4.6 mphMostly Cloudy
7:50 PM46.4 °F37.4 °F71 %30.04 in6.2 miNNW (330°)5.8 mphScattered Clouds
8:20 PM44.6 °F37.4 °F76 %30.04 in6.2 miNW (310°)5.8 mphPartly Cloudy
8:39 PM44.0 °F39.0 °F78 %30.07 in31.0 miNW (320°)8.9 mphClear
8:50 PM42.8 °F37.4 °F81 %30.04 in6.2 miNW (310°)6.9 mphPartly Cloudy
9:20 PM42.8 °F37.4 °F81 %30.04 in6.2 miNW (310°)6.9 mphPartly Cloudy
9:50 PM42.8 °F37.4 °F81 %30.06 in6.2 miNW (310°)6.9 mphPartly Cloudy
10:20 PM42.8 °F39.2 °F87 %30.06 in6.2 miNW (320°)5.8 mphScattered Clouds
10:50 PM42.8 °F39.2 °F87 %30.06 in6.2 miNW (320°)4.6 mphScattered Clouds
11:20 PM42.8 °F39.2 °F87 %30.06 in6.2 miNNW (330°)5.8 mphMostly Cloudy
11:50 PM42.8 °F41.0 °F93 %30.04 in6.2 miNNW (330°)6.9 mphMostly Cloudy
Hourly data recorded from EFHK, located miles away from Helsinki, Finland







STORIES FROM OUR PARTNERS